| time (UTC) | temp F | wind direction | speed knots | gust knots | rain 1hr in | rain 24hr in | rain mn in | humidity % | barometer mb |
| 20260506011925 | 74 | 342 | 13.9 | 20.9 | 0.00 | 0.00 | 0.00 | 70 | 1006.0 |
| 20260506004926 | 76 | 360 | 13.0 | 13.0 | 0.00 | 0.00 | 0.00 | 62 | 1006.0 |
| 20260506001924 | 76 | 360 | 13.0 | 13.0 | 0.00 | 0.00 | 0.00 | 67 | 1005.0 |
| 20260505234924 | 85 | 330 | 11.3 | 11.3 | 0.00 | 0.00 | 0.00 | 45 | 1005.0 |
| 20260505224925 | 88 | 230 | 8.7 | 8.7 | 0.00 | 0.00 | 0.00 | 54 | 1003.0 |
| 20260505221924 | 89 | 230 | 8.7 | 8.7 | 0.00 | 0.00 | 0.00 | 54 | 1003.0 |
| 20260505214924 | 89 | 230 | 8.7 | 18.2 | 0.00 | 0.00 | 0.00 | 55 | 1003.0 |
| 20260505211924 | 90 | 190 | 6.1 | 10.4 | 0.00 | 0.00 | 0.00 | 57 | 1003.0 |
| 20260505204924 | 89 | 230 | 5.2 | 10.4 | 0.00 | 0.00 | 0.00 | 58 | 1003.0 |
| 20260505194924 | 88 | 230 | 5.2 | 10.4 | 0.00 | 0.00 | 0.00 | 58 | 1003.0 |
| 20260505181924 | 83 | 200 | 17.4 | 26.1 | 0.00 | 0.00 | 0.00 | 67 | 1004.0 |
| 20260505174924 | 82 | 200 | 17.4 | 26.1 | 0.00 | 0.00 | 0.00 | 68 | 1004.0 |
| 20260505171924 | 81 | 200 | 17.4 | 26.1 | 0.00 | 0.00 | 0.00 | 70 | 1005.0 |
| 20260505164924 | 80 | 200 | 17.4 | 26.1 | 0.00 | 0.00 | 0.00 | 71 | 1004.0 |
| 20260505151924 | 76 | 200 | 11.3 | 21.7 | 0.00 | 0.00 | 0.00 | 76 | 1004.0 |
| 20260505124924 | 71 | 190 | 15.6 | 24.3 | 0.00 | 0.00 | 0.00 | 83 | 1004.0 |
| 20260505114924 | 71 | 190 | 15.6 | 24.3 | 0.00 | 0.00 | 0.00 | 83 | 1004.0 |
| 20260505111924 | 71 | 190 | 15.6 | 24.3 | 0.00 | 0.00 | 0.00 | 83 | 1003.0 |
| 20260505094924 | 71 | 190 | 18.2 | 26.1 | 0.00 | 0.00 | 0.00 | 83 | 1004.0 |
| 20260505091924 | 71 | 190 | 18.2 | 26.1 | 0.00 | 0.00 | 0.00 | 83 | 1004.0 |
| 20260505084924 | 71 | 190 | 18.2 | 26.1 | 0.00 | 0.00 | 0.00 | 83 | 1004.0 |
| 20260505081924 | 71 | 190 | 18.2 | 26.1 | 0.00 | 0.00 | 0.00 | 82 | 1004.0 |
| 20260505074925 | 72 | 180 | 14.8 | 24.3 | 0.00 | 0.00 | 0.00 | 81 | 1004.0 |
| 20260505071924 | 72 | 180 | 14.8 | 24.3 | 0.00 | 0.00 | 0.00 | 79 | 1005.0 |
| 20260505064924 | 72 | 180 | 14.8 | 24.3 | 0.00 | 0.00 | 0.00 | 78 | 1005.0 |
| 20260505061924 | 73 | 180 | 13.0 | 13.0 | 0.00 | 0.00 | 0.00 | 77 | 1005.0 |
| 20260505054924 | 73 | 180 | 13.0 | 13.0 | 0.00 | 0.00 | 0.00 | 76 | 1005.0 |
| 20260505051924 | 75 | 170 | 14.8 | 14.8 | 0.00 | 0.00 | 0.00 | 74 | 1005.0 |
| 20260505031924 | 75 | 180 | 14.8 | 14.8 | 0.00 | 0.00 | 0.00 | 70 | 1006.0 |
| 20260505024924 | 75 | 180 | 14.8 | 14.8 | 0.00 | 0.00 | 0.00 | 69 | 1005.0 |
| 20260505021924 | 75 | 180 | 14.8 | 14.8 | 0.00 | 0.00 | 0.00 | 68 | 1006.0 |
| 20260505014925 | 76 | 190 | 14.8 | 24.3 | 0.00 | 0.00 | 0.00 | 67 | 1006.0 |